Weather in Ust-Labinsk

Russia / Krasnodar Krai     45°12′49″N   39°41′28″E
temp.,
°C
wind,
m/s
gust,
m/s
humid.,
%
clouds,
%
prec.,
mm/h
press.,
hPa
HPBL,
m
27 october, wed
wed2700:00+3ene410655 0.0 1030211
03:00+2ene49711 0.0 1029193
06:00+2ene4107930 0.0 1028209
09:00+5e58673 0.0 1027311
12:00+11e45470 0.0 1026623
15:00+13e34400 0.0 1024805
18:00+9ne22510 0.0 102417
21:00+7ene12570 0.0 102410
28 october, thu
thu2800:00+6sw11620 0.0 102410
03:00+5wsw22660 0.0 102410
06:00+4w22700 0.0 102414
09:00+7wsw23580 0.0 1025191
12:00+12wsw46440 0.0 1024661
15:00+13w45450 0.0 10231168
18:00+9nw23500 0.0 102422
21:00+7nnw225299 0.0 102413
29 october, fri
fri2900:00+6nw2255100 0.0 102415
03:00+5wnw225989 0.0 102413
06:00+4w11638 0.0 102510
09:00+7sw115159 0.0 1026123
12:00+12nne223750 0.0 1025606
15:00+11ne344386 0.0 1025462
18:00+9ne475693 0.0 1027193
21:00+9ene4956100 0.0 1027320
30 october, sat
sat3000:00+9ene4106095 0.0 1027322
03:00+7ene49745 0.0 1028196
06:00+6ene410730 0.0 1028211
09:00+9e610541 0.0 1029368
12:00+14e793511 0.0 1028987
15:00+15e793425 0.0 10281301
18:00+10ene4114835 0.0 1028256
21:00+9ene513700 0.0 1028366
31 october, sun
sun3100:00+9ene613800 0.0 1027352
03:00+8ene613840 0.0 1026318
06:00+7ene6137966 0.0 1026351
09:00+9ene7136315 0.0 1025513
12:00+15e8105466 0.0 1023878
15:00+15e81158100 0.0 1022955
18:00+13e81567100 0.0 1022792
21:00+12e61369100 0.0 1022630